Date String (YYYY-MM-DD hh:mm:ss) UTC,Instrument flags,absolute air pressure of the measurement (hPa),sample flow rate (lpm),inlet stack bypass flow (lpm),air temperature of the measurement (°C),ambient temperature measured by the external sensor (°C),aerosol sample conditioner tube jacket temperature (°C),OPC LED temperature (°C),internal box temperature (°C),relative humidity of the measurement (%),span deviation,mass concentration of particles derived from Lorenz-Mie calculation of OPC scattering (μg/m³),mass concentration of particles derived from Lorenz-Mie calculation of OPC scattering (μg/m³),mass concentration of particles derived from Lorenz-Mie calculation of OPC scattering (μg/m³)
DateTimeUTC,F1_M11,P_M11,Q1_M11,Q2_M11,T1_M11,T2_M11,T3_M11,T4_M11,T5_M11,U1_M11,ZSPAN_M11,X0_M11,X2_M11,X1_M11
2023-10-31 11:00:00,SystemResetWarning,0837.8,5.01,000.00,020.9,019.7,000.0,029.4,022.1,11.2,0000.0,0010.36,0005.33,0004.84
2023-10-31 11:01:00,SystemResetWarning,0837.8,5.00,000.00,020.9,019.7,000.0,029.4,022.1,11.2,0000.0,0010.31,0005.35,0004.86
2023-10-31 11:02:00,SystemResetWarning,0837.8,5.00,000.00,020.9,019.6,000.0,029.3,022.2,11.2,0000.0,0010.30,0005.35,0004.84
2023-10-31 11:03:00,SystemResetWarning,0837.8,5.00,000.00,020.9,020.1,000.0,029.3,022.7,11.1,0000.0,0009.50,0005.34,0004.83
2023-10-31 11:04:00,SystemResetWarning,0837.8,5.00,000.00,021.1,020.9,000.0,029.4,023.1,10.9,0000.0,0009.00,0005.35,0004.83
2023-10-31 11:05:00,SystemResetWarning,0837.8,5.00,000.00,021.2,021.2,000.0,029.4,023.1,10.7,0000.0,0009.21,0005.38,0004.87
2023-10-31 11:06:00,SystemResetWarning,0837.8,4.99,000.00,021.3,021.0,000.0,029.4,022.9,10.5,0000.0,0009.42,0005.46,0004.92
2023-10-31 11:07:00,SystemResetWarning,0837.8,4.99,000.00,021.2,020.8,000.0,029.4,022.8,10.4,0000.0,0009.40,0005.51,0004.98
2023-10-31 11:08:00,SystemResetWarning,0837.8,5.01,000.00,021.2,020.6,000.0,029.5,022.7,10.4,0000.0,0009.32,0005.56,0005.03
2023-10-31 11:09:00,SystemResetWarning,0837.9,5.00,000.00,021.2,020.5,000.0,029.5,022.6,10.4,-000.3,0009.22,0005.61,0005.07
2023-10-31 11:10:00,SystemResetWarning,0837.8,5.00,000.00,021.2,020.3,000.0,029.5,022.6,10.4,-001.1,0009.31,0005.63,0005.10
2023-10-31 11:11:00,SystemResetWarning,0837.8,5.00,000.00,021.1,020.2,000.0,029.5,022.4,10.1,-001.8,0009.58,0005.65,0005.12
2023-10-31 11:12:00,SystemResetWarning,0837.8,5.00,000.00,021.1,020.1,000.0,029.5,022.4,9.7,-001.5,0009.64,0005.62,0005.10
2023-10-31 11:13:00,SystemResetWarning,0837.8,5.00,000.00,021.1,020.0,000.0,029.4,022.3,9.6,-002.0,0009.85,0005.61,0005.08
2023-10-31 11:14:00,SystemResetWarning,0837.8,5.00,000.00,021.0,019.9,000.0,029.4,022.3,9.7,-001.8,0009.89,0005.62,0005.09
2023-10-31 11:15:00,SystemResetWarning,0837.8,5.00,000.00,021.0,019.9,000.0,029.4,022.2,9.7,-000.8,0009.81,0005.61,0005.10
2023-10-31 11:16:00,SystemResetWarning,0837.8,5.01,000.00,021.0,019.8,000.0,029.4,022.2,9.7,-001.6,0009.73,0005.58,0005.11
2023-10-31 11:17:00,SystemResetWarning,0837.7,5.00,000.00,020.9,019.8,000.0,029.4,022.2,9.7,-001.3,0009.76,0005.55,0005.11
2023-10-31 11:18:00,SystemResetWarning,0837.8,5.00,000.00,020.9,019.7,000.0,029.4,022.1,9.8,-001.5,0010.31,0005.53,0005.09
2023-10-31 11:19:00,SystemResetWarning,0837.8,4.99,000.00,020.9,019.6,000.0,029.4,022.1,9.8,-000.9,0010.22,0005.51,0005.09
2023-10-31 11:20:00,SystemResetWarning,0837.8,4.99,000.00,020.9,019.6,000.0,029.4,022.1,9.9,-000.4,0010.18,0005.55,0005.14
2023-10-31 11:21:00,SystemResetWarning,0837.8,5.00,000.00,020.8,019.6,000.0,029.4,022.3,10.3,-000.0,0010.23,0005.62,0005.20
2023-10-31 11:22:00,SystemResetWarning,0837.8,5.01,000.00,021.0,020.3,000.0,029.4,022.8,10.4,0000.9,0009.97,0005.65,0005.23
2023-10-31 11:23:00,SystemResetWarning,0837.8,4.99,000.00,021.1,021.1,000.0,029.4,023.2,10.3,0000.9,0009.97,0005.70,0005.28
2023-10-31 11:24:00,SystemResetWarning,0837.8,4.99,000.00,021.2,021.1,000.0,029.4,023.0,10.3,0001.2,0009.63,0005.68,0005.29
2023-10-31 11:25:00,SystemResetWarning,0837.8,5.00,000.00,021.2,021.0,000.0,029.4,022.9,10.3,0000.9,0009.58,0005.69,0005.30
2023-10-31 11:26:00,SystemResetWarning,0837.8,5.00,000.00,021.2,020.7,000.0,029.5,022.8,10.3,0001.5,0009.61,0005.70,0005.32
2023-10-31 11:27:00,SystemResetWarning,0837.8,5.00,000.00,021.2,020.5,000.0,029.5,022.7,10.3,0001.6,0009.57,0005.73,0005.33
2023-10-31 11:28:00,SystemResetWarning,0837.8,5.00,000.00,021.2,020.4,000.0,029.5,022.6,10.2,0001.3,0009.57,0005.73,0005.32
2023-10-31 11:29:00,SystemResetWarning,0837.7,5.01,000.00,021.1,020.2,000.0,029.4,022.5,10.2,0001.1,0008.94,0005.70,0005.28
2023-10-31 11:30:00,SystemResetWarning,0837.7,5.00,000.00,021.1,020.1,000.0,029.5,022.4,10.3,0001.2,0008.90,0005.67,0005.24
2023-10-31 11:31:00,SystemResetWarning,0837.7,5.01,000.00,021.1,020.0,000.0,029.4,022.4,10.4,0000.9,0008.92,0005.59,0005.15
2023-10-31 11:32:00,SystemResetWarning,0837.7,5.00,000.00,021.0,019.9,000.0,029.4,022.3,10.5,0000.8,0008.86,0005.50,0005.05
2023-10-31 11:33:00,SystemResetWarning,0837.7,5.00,000.00,021.0,019.8,000.0,029.4,022.3,10.6,0001.0,0008.73,0005.41,0004.97
2023-10-31 11:34:00,SystemResetWarning,0837.8,5.00,000.00,021.0,019.8,000.0,029.4,022.2,10.6,0001.3,0009.40,0005.36,0004.92
2023-10-31 11:35:00,SystemResetWarning,0837.7,5.00,000.00,020.9,019.7,000.0,029.4,022.1,10.7,0001.4,0009.60,0005.32,0004.86
2023-10-31 11:36:00,SystemResetWarning,0837.7,5.00,000.00,020.9,019.7,000.0,029.4,022.1,10.7,0001.5,0009.75,0005.30,0004.83
2023-10-31 11:37:00,SystemResetWarning,0837.7,5.00,000.00,020.9,019.6,000.0,029.4,022.1,10.7,0002.0,0009.73,0005.26,0004.79
2023-10-31 11:38:00,SystemResetWarning,0837.7,5.00,000.00,020.9,019.7,000.0,029.3,022.2,10.6,0001.6,0009.69,0005.21,0004.74
2023-10-31 11:39:00,SystemResetWarning,0837.8,5.01,000.00,021.0,020.3,000.0,029.4,022.8,10.6,0001.9,0009.51,0005.15,0004.70
2023-10-31 11:40:00,SystemResetWarning,0837.8,5.00,000.00,021.1,021.1,000.0,029.4,023.2,10.6,0001.0,0009.37,0005.11,0004.68
2023-10-31 11:41:00,SystemResetWarning,0837.8,4.98,000.00,021.2,021.2,000.0,029.4,023.0,10.6,0000.0,0009.59,0005.10,0004.67
2023-10-31 11:42:00,SystemResetWarning,0837.8,5.00,000.00,021.3,021.0,000.0,029.4,022.9,10.6,0000.0,0009.48,0005.04,0004.64
2023-10-31 11:43:00,SystemResetWarning,0837.8,5.00,000.00,021.2,020.8,000.0,029.5,022.8,10.6,0000.0,0009.59,0004.99,0004.62
2023-10-31 11:44:00,SystemResetWarning,0837.8,5.00,000.00,021.2,020.6,000.0,029.5,022.7,10.7,0000.0,0009.71,0004.96,0004.60
2023-10-31 11:45:00,SystemResetWarning,0837.8,5.00,000.00,021.2,020.4,000.0,029.5,022.6,10.7,0000.0,0008.99,0004.91,0004.59
2023-10-31 11:46:00,SystemResetWarning,0837.8,5.01,000.00,021.1,020.3,000.0,029.5,022.6,10.8,0000.0,0008.74,0004.87,0004.56
2023-10-31 11:47:00,SystemResetWarning,0837.8,5.00,000.00,021.1,020.1,000.0,029.5,022.5,10.8,0000.0,0008.49,0004.80,0004.50
2023-10-31 11:48:00,SystemResetWarning,0837.7,5.00,000.00,021.1,020.0,000.0,029.5,022.5,10.9,0000.0,0008.29,0004.69,0004.40
2023-10-31 11:49:00,SystemResetWarning,0837.8,5.00,000.00,021.0,019.9,000.0,029.4,022.4,10.9,0000.0,0008.08,0004.56,0004.30
2023-10-31 11:50:00,SystemResetWarning,0837.8,5.00,000.00,021.0,019.9,000.0,029.4,022.3,11.0,0000.0,0007.91,0004.46,0004.21
2023-10-31 11:51:00,SystemResetWarning,0837.8,5.00,000.00,021.0,019.8,000.0,029.4,022.2,11.1,0000.0,0007.98,0004.35,0004.11
2023-10-31 11:52:00,SystemResetWarning,0837.8,5.00,000.00,020.9,019.7,000.0,029.4,022.2,11.1,0000.0,0008.37,0004.28,0004.04
2023-10-31 11:53:00,SystemResetWarning,0837.8,4.99,000.00,020.9,019.6,000.0,029.4,022.2,11.2,0000.0,0008.20,0004.23,0003.99
2023-10-31 11:54:00,SystemResetWarning,0837.8,5.01,000.00,020.9,019.6,000.0,029.4,022.1,11.2,0000.6,0007.95,0004.18,0003.94
2023-10-31 11:55:00,SystemResetWarning,0837.8,5.00,000.00,020.9,019.6,000.0,029.4,022.2,11.2,0000.8,0007.63,0004.12,0003.89
2023-10-31 11:56:00,SystemResetWarning,0837.8,5.02,000.00,021.0,020.3,000.0,029.4,022.8,11.2,0000.9,0007.54,0004.08,0003.84
2023-10-31 11:57:00,SystemResetWarning,0837.8,4.99,000.00,021.1,021.1,000.0,029.4,023.2,11.1,0000.9,0007.38,0004.05,0003.81
2023-10-31 11:58:00,SystemResetWarning,0837.8,4.98,000.00,021.2,021.2,000.0,029.4,023.0,11.1,0002.1,0007.33,0004.04,0003.82
2023-10-31 11:59:00,SystemResetWarning,0837.8,5.01,000.00,021.3,021.0,000.0,029.5,022.9,11.0,0002.6,0007.40,0004.10,0003.88
